When you browse on this site, cookies collect data to enhance your experience and personalize the content and advertising you see.
Visit our Privacy Policy to learn more. By continuing to use the site, you agree to this use of cookies and data.
  • In Österreich
  • Länderverzeichnis
  • Für 7 Tage
  • Wassertemperatur
  • Wetterkarte
  • News
  • Widgets
  • user-avatar
    Anmelden

    Stündliche Wetter Santiago Tulantepec

    Heute, 18 Januar, Samstag

    Zeit Temperatur Niederschläge Wind Luftdruck Luftfeuchtigkeit
    00:00 +13°C° 0.1 mm 1 m/S 586 mmHg 91%
    01:00 +12°C° 0.1 mm 0 m/S 586 mmHg 90%
    02:00 +12°C° 0.1 mm 0 m/S 585 mmHg 89%
    03:00 +13°C° 0.1 mm 1 m/S 585 mmHg 90%
    04:00 +13°C° 0.1 mm 1 m/S 585 mmHg 92%
    05:00 +11°C° 0 mm 0 m/S 585 mmHg 92%
    06:00 +13°C° 0 mm 1 m/S 586 mmHg 91%
    07:00 +13°C° 0 mm 1 m/S 586 mmHg 89%
    08:00 +14°C° 0 mm 1 m/S 587 mmHg 88%
    09:00 +15°C° 0 mm 2 m/S 587 mmHg 79%
    10:00 +17°C° 0 mm 2 m/S 588 mmHg 71%
    11:00 +18°C° 0 mm 2 m/S 589 mmHg 63%
    12:00 +18°C° 0.2 mm 3 m/S 588 mmHg 65%
    13:00 +18°C° 0.2 mm 3 m/S 587 mmHg 68%
    14:00 +18°C° 0.2 mm 3 m/S 586 mmHg 71%
    15:00 +16°C° 0.3 mm 3 m/S 586 mmHg 76%
    16:00 +14°C° 0.3 mm 3 m/S 585 mmHg 82%
    17:00 +14°C° 0.3 mm 2 m/S 585 mmHg 88%
    18:00 +14°C° 0.2 mm 2 m/S 585 mmHg 90%
    19:00 +13°C° 0.2 mm 2 m/S 586 mmHg 92%
    20:00 +13°C° 0.2 mm 1 m/S 586 mmHg 94%
    21:00 +13°C° 0.1 mm 1 m/S 586 mmHg 94%
    22:00 +13°C° 0.1 mm 1 m/S 586 mmHg 93%
    23:00 +13°C° 0.1 mm 1 m/S 586 mmHg 93%

    Morgen, 19 Januar, Sonntag

    Zeit Temperatur Niederschläge Wind Luftdruck Luftfeuchtigkeit
    00:00 +13°C° 0.1 mm 1 m/S 586 mmHg 93%
    01:00 +13°C° 0.1 mm 1 m/S 586 mmHg 93%
    02:00 +13°C° 0.1 mm 1 m/S 586 mmHg 93%
    03:00 +13°C° 0.1 mm 1 m/S 586 mmHg 94%
    04:00 +12°C° 0.1 mm 2 m/S 586 mmHg 94%
    05:00 +12°C° 0.1 mm 2 m/S 586 mmHg 95%
    06:00 +12°C° 0.7 mm 2 m/S 586 mmHg 95%
    07:00 +13°C° 0.7 mm 2 m/S 587 mmHg 94%
    08:00 +13°C° 0.7 mm 2 m/S 587 mmHg 93%
    09:00 +13°C° 1.1 mm 2 m/S 587 mmHg 93%
    10:00 +13°C° 1.1 mm 2 m/S 587 mmHg 92%
    11:00 +13°C° 1.1 mm 2 m/S 587 mmHg 92%
    12:00 +12°C° 0.7 mm 2 m/S 587 mmHg 91%
    13:00 +12°C° 0.7 mm 2 m/S 586 mmHg 91%
    14:00 +11°C° 0.7 mm 3 m/S 586 mmHg 91%
    15:00 +11°C° 0.2 mm 3 m/S 586 mmHg 92%
    16:00 +11°C° 0.2 mm 3 m/S 586 mmHg 93%
    17:00 +10°C° 0.2 mm 3 m/S 586 mmHg 95%
    18:00 +10°C° 0.7 mm 2 m/S 586 mmHg 95%
    19:00 +10°C° 0.7 mm 2 m/S 587 mmHg 95%
    20:00 +10°C° 0.7 mm 2 m/S 587 mmHg 96%
    21:00 +10°C° 0.7 mm 2 m/S 587 mmHg 96%
    22:00 +10°C° 0.7 mm 1 m/S 587 mmHg 96%
    23:00 +10°C° 0.7 mm 1 m/S 587 mmHg 96%

    übermorgen, 20 Januar, Montag

    Zeit Temperatur Niederschläge Wind Luftdruck Luftfeuchtigkeit
    00:00 +10°C° 0.2 mm 1 m/S 587 mmHg 96%
    01:00 +10°C° 0.2 mm 1 m/S 587 mmHg 96%
    02:00 +10°C° 0.2 mm 1 m/S 587 mmHg 96%
    03:00 +10°C° 0.2 mm 1 m/S 587 mmHg 96%
    04:00 +10°C° 0.2 mm 1 m/S 587 mmHg 96%
    05:00 +10°C° 0.2 mm 1 m/S 587 mmHg 96%
    06:00 +9°C° 0.2 mm 2 m/S 588 mmHg 94%
    07:00 +9°C° 0.2 mm 2 m/S 588 mmHg 93%
    08:00 +10°C° 0.2 mm 2 m/S 589 mmHg 92%
    09:00 +10°C° 0.2 mm 2 m/S 588 mmHg 92%
    10:00 +10°C° 0.2 mm 2 m/S 588 mmHg 92%
    11:00 +10°C° 0.2 mm 2 m/S 588 mmHg 91%
    12:00 +10°C° 0.2 mm 2 m/S 588 mmHg 90%
    13:00 +10°C° 0.2 mm 3 m/S 587 mmHg 88%
    14:00 +10°C° 0.2 mm 3 m/S 587 mmHg 87%
    15:00 +10°C° 0.2 mm 3 m/S 587 mmHg 89%
    16:00 +9°C° 0.2 mm 3 m/S 587 mmHg 91%
    17:00 +9°C° 0.2 mm 2 m/S 586 mmHg 92%
    18:00 +9°C° 0.1 mm 2 m/S 587 mmHg 93%
    19:00 +9°C° 0.1 mm 2 m/S 587 mmHg 94%
    20:00 +8°C° 0.1 mm 2 m/S 587 mmHg 94%
    21:00 +8°C° 0 mm 2 m/S 587 mmHg 94%
    22:00 +8°C° 0 mm 2 m/S 587 mmHg 93%
    23:00 +8°C° 0 mm 2 m/S 587 mmHg 93%

    21 Januar, Dienstag

    Zeit Temperatur Niederschläge Wind Luftdruck Luftfeuchtigkeit
    00:00 +8°C° 0 mm 2 m/S 587 mmHg 93%
    01:00 +9°C° 0 mm 1 m/S 587 mmHg 93%
    02:00 +9°C° 0 mm 1 m/S 586 mmHg 93%
    03:00 +9°C° 0 mm 1 m/S 586 mmHg 93%
    04:00 +9°C° 0 mm 1 m/S 586 mmHg 93%
    05:00 +9°C° 0 mm 1 m/S 586 mmHg 93%
    06:00 +9°C° 0 mm 1 m/S 586 mmHg 89%
    07:00 +10°C° 0 mm 1 m/S 587 mmHg 85%
    08:00 +11°C° 0 mm 1 m/S 587 mmHg 82%
    09:00 +12°C° 0 mm 1 m/S 588 mmHg 74%
    10:00 +14°C° 0 mm 1 m/S 588 mmHg 66%
    11:00 +16°C° 0 mm 1 m/S 589 mmHg 58%
    12:00 +16°C° 0 mm 2 m/S 588 mmHg 59%
    13:00 +16°C° 0 mm 2 m/S 587 mmHg 60%
    14:00 +16°C° 0 mm 2 m/S 587 mmHg 62%
    15:00 +15°C° 0 mm 2 m/S 586 mmHg 68%
    16:00 +14°C° 0 mm 2 m/S 585 mmHg 74%
    17:00 +13°C° 0 mm 2 m/S 584 mmHg 80%
    18:00 +12°C° 0 mm 1 m/S 584 mmHg 83%
    19:00 +11°C° 0 mm 1 m/S 585 mmHg 86%
    20:00 +10°C° 0 mm 1 m/S 585 mmHg 89%
    21:00 +11°C° 0 mm 1 m/S 585 mmHg 84%
    22:00 +12°C° 0 mm 1 m/S 585 mmHg 79%
    23:00 +12°C° 0 mm 2 m/S 585 mmHg 74%

    22 Januar, Mittwoch

    Zeit Temperatur Niederschläge Wind Luftdruck Luftfeuchtigkeit
    00:00 +10°C° 0 mm 2 m/S 584 mmHg 76%
    01:00 +10°C° 0 mm 2 m/S 584 mmHg 77%
    02:00 +9°C° 0 mm 2 m/S 583 mmHg 79%
    03:00 +9°C° 0 mm 2 m/S 583 mmHg 79%
    04:00 +9°C° 0 mm 2 m/S 583 mmHg 79%
    05:00 +9°C° 0 mm 2 m/S 582 mmHg 79%
    06:00 +10°C° 0 mm 2 m/S 583 mmHg 74%
    07:00 +13°C° 0 mm 2 m/S 584 mmHg 69%
    08:00 +14°C° 0 mm 2 m/S 585 mmHg 64%
    09:00 +16°C° 0 mm 2 m/S 585 mmHg 57%
    10:00 +18°C° 0 mm 2 m/S 586 mmHg 50%
    11:00 +20°C° 0 mm 3 m/S 586 mmHg 43%
    12:00 +20°C° 0 mm 3 m/S 586 mmHg 43%
    13:00 +20°C° 0 mm 3 m/S 585 mmHg 43%
    14:00 +21°C° 0 mm 3 m/S 584 mmHg 42%
    15:00 +19°C° 0 mm 3 m/S 584 mmHg 51%
    16:00 +18°C° 0 mm 2 m/S 583 mmHg 60%
    17:00 +16°C° 0 mm 1 m/S 582 mmHg 69%
    18:00 +16°C° 0.1 mm 1 m/S 583 mmHg 70%
    19:00 +15°C° 0.1 mm 1 m/S 583 mmHg 71%
    20:00 +14°C° 0.1 mm 0 m/S 584 mmHg 72%
    21:00 +14°C° 0.1 mm 1 m/S 583 mmHg 74%
    22:00 +14°C° 0.1 mm 1 m/S 583 mmHg 76%
    23:00 +13°C° 0.1 mm 1 m/S 583 mmHg 78%

    23 Januar, Donnerstag

    Zeit Temperatur Niederschläge Wind Luftdruck Luftfeuchtigkeit
    00:00 +13°C° 0 mm 1 m/S 582 mmHg 80%
    01:00 +12°C° 0 mm 1 m/S 582 mmHg 82%
    02:00 +11°C° 0 mm 1 m/S 581 mmHg 84%
    03:00 +11°C° 0 mm 1 m/S 581 mmHg 84%
    04:00 +11°C° 0 mm 1 m/S 581 mmHg 84%
    05:00 +10°C° 0 mm 1 m/S 581 mmHg 85%
    06:00 +12°C° 0 mm 1 m/S 582 mmHg 79%
    07:00 +13°C° 0 mm 1 m/S 583 mmHg 74%
    08:00 +14°C° 0 mm 1 m/S 584 mmHg 69%
    09:00 +15°C° 0 mm 2 m/S 584 mmHg 60%
    10:00 +17°C° 0 mm 2 m/S 585 mmHg 52%
    11:00 +18°C° 0 mm 3 m/S 585 mmHg 44%
    12:00 +18°C° 0.1 mm 3 m/S 584 mmHg 44%
    13:00 +18°C° 0.1 mm 4 m/S 584 mmHg 44%
    14:00 +18°C° 0.1 mm 4 m/S 583 mmHg 44%
    15:00 +15°C° 0.1 mm 4 m/S 582 mmHg 50%
    16:00 +14°C° 0.1 mm 4 m/S 582 mmHg 56%
    17:00 +12°C° 0.1 mm 4 m/S 581 mmHg 63%
    18:00 +12°C° 0 mm 4 m/S 581 mmHg 62%
    19:00 +12°C° 0 mm 3 m/S 581 mmHg 61%
    20:00 +12°C° 0 mm 3 m/S 582 mmHg 60%
    21:00 +12°C° 0 mm 2 m/S 581 mmHg 60%
    22:00 +12°C° 0 mm 2 m/S 581 mmHg 60%
    23:00 +11°C° 0 mm 1 m/S 581 mmHg 60%
    Mehr zeigen